Crescent City, CA

8:26 PM PST on January 19, 2018 (GMT -0800)
McNamara

Weather History for KCEC - September, 2012

Change the Weather History Date:

Tuesday, September 4, 2012

  Actual Average Record
Temperature  
Mean Temperature 54 °F 56 °F  
Max Temperature 57 °F 62 °F 80 °F (1975)
Min Temperature 50 °F 51 °F 39 °F (2002)
Degree Days  
Heating Degree Days 11 8  
Month to date heating degree days 45 32  
Since 1 July heating degree days 546 552  
Cooling Degree Days 0 0  
Month to date cooling degree days 0 0  
Year to date cooling degree days 0 0  
Growing Degree Days 2 (Base 50)    
Moisture  
Dew Point 52 °F    
Average Humidity 92    
Maximum Humidity 100    
Minimum Humidity 83    
Precipitation  
Precipitation 0.01 in 0.03 in 0.24 in (2007)
Month to date precipitation 0.01 0.10  
Year to date precipitation 44.09 37.96  
Since 1 July precipitation 0.71  
Snow  
Snow 0.00 in - - ()
Month to date snowfall 0.0  
Since 1 July snowfall 0.0  
Since 1 September snowfall 0.0  
Snow Depth 0.00 in    
Sea Level Pressure  
Sea Level Pressure 30.01 in    
Wind  
Wind Speed 5 mph (SSE)    
Max Wind Speed 14 mph    
Max Gust Speed 16 mph    
Visibility 2 miles    
Events Fog , Rain    
T = Trace of Precipitation, MM = Missing Value Source: NWS Daily Summary

Daily Weather History Graph

Daily Weather History Graph

Search for Another Location

Airport or City:

Trip Planner

Search our weather history database for the weather conditions in past years. The results will help you decide how hot, cold, wet, or windy it might be!

Date:

Astronomy

Sep. 04, 2012 Rise Set
Actual Time 6:46 AM PDT 7:44 PM PDT
Civil Twilight 6:18 AM PDT 8:12 PM PDT
Nautical Twilight 5:44 AM PDT 8:46 PM PDT
Astronomical Twilight 5:08 AM PDT 9:21 PM PDT
Moon 9:35 PM PDT (9/4) 11:03 AM PDT (9/4)
Length of Visible Light 13h 54m
Length of Day
12h 57m
Waning Gibbous, 83% of the Moon is Illuminated
Sep 4
Waning Gibbous
Sep 8
Last Quarter
Sep 15
New
Sep 22
First Quarter
Sep 29
Full

Hourly Weather History & Observations

Time (PDT) Temp. Dew Point Humidity Pressure Visibility Wind Dir Wind Speed Gust Speed Precip Events Conditions
12:56 AM 52.0 °F 51.1 °F 97% 30.01 in 0.2 mi ENE 3.5 mph - 0.00 in Fog , Rain Light Rain
1:56 AM 52.0 °F 52.0 °F 100% 30.01 in 0.2 mi Calm Calm - 0.00 in Fog , Rain Light Rain
2:56 AM 50.0 °F 50.0 °F 100% 30.01 in 0.2 mi Calm Calm - 0.00 in Fog , Rain Light Rain
3:56 AM 51.1 °F 51.1 °F 100% 30.00 in 0.2 mi North 3.5 mph - 0.00 in Fog , Rain Light Rain
4:56 AM 52.0 °F 51.1 °F 97% 29.99 in 0.2 mi Calm Calm - 0.01 in Fog Fog
5:56 AM 51.1 °F 51.1 °F 100% 29.99 in 0.2 mi Calm Calm - N/A Fog Fog
6:56 AM 50.0 °F 50.0 °F 100% 30.00 in 0.2 mi NW 3.5 mph - N/A Fog Fog
7:56 AM 50.0 °F 50.0 °F 100% 30.01 in 0.2 mi Calm Calm - N/A Fog Fog
8:56 AM 51.1 °F 51.1 °F 100% 30.01 in 0.2 mi Calm Calm - N/A Fog Fog
9:56 AM 53.1 °F 53.1 °F 100% 30.02 in 0.5 mi Calm Calm - N/A Fog Fog
10:06 AM 53.6 °F 53.6 °F 100% 30.02 in 1.0 mi Calm Calm - N/A   Overcast
10:17 AM 53.6 °F 53.6 °F 100% 30.02 in 2.0 mi Calm Calm - N/A   Overcast
10:27 AM 53.6 °F 53.6 °F 100% 30.02 in 5.0 mi Calm Calm - N/A   Overcast
10:56 AM 55.9 °F 54.0 °F 93% 30.02 in 4.0 mi South 5.8 mph - N/A   Overcast
11:56 AM 55.9 °F 51.1 °F 84% 30.03 in 10.0 mi South 9.2 mph - N/A   Mostly Cloudy
12:44 PM 55.4 °F 51.8 °F 88% 30.02 in 2.0 mi South 10.4 mph - N/A   Overcast
12:56 PM 55.0 °F 50.0 °F 83% 30.03 in 5.0 mi South 11.5 mph - N/A   Haze
1:07 PM 55.4 °F 51.8 °F 88% 30.02 in 2.5 mi South 11.5 mph - N/A   Overcast
1:52 PM 55.4 °F 51.8 °F 88% 30.03 in 6.0 mi SSE 11.5 mph - N/A   Haze
1:56 PM 55.9 °F 51.1 °F 84% 30.03 in 6.0 mi South 11.5 mph - N/A   Haze
2:56 PM 55.9 °F 51.1 °F 84% 30.02 in 5.0 mi South 12.7 mph - N/A   Haze
3:42 PM 55.4 °F 51.8 °F 88% 30.02 in 2.5 mi South 9.2 mph - N/A   Overcast
3:56 PM 55.0 °F 52.0 °F 89% 30.01 in 3.0 mi South 8.1 mph - N/A   Overcast
4:01 PM 55.4 °F 51.8 °F 88% 30.01 in 1.8 mi South 9.2 mph - N/A   Overcast
4:09 PM 55.4 °F 51.8 °F 88% 30.01 in 1.0 mi South 6.9 mph - N/A   Overcast
4:21 PM 55.4 °F 51.8 °F 88% 30.00 in 1.5 mi South 9.2 mph - N/A   Overcast
4:28 PM 53.6 °F 51.8 °F 94% 30.00 in 1.0 mi South 6.9 mph - N/A   Overcast
4:56 PM 55.0 °F 52.0 °F 89% 30.00 in 1.2 mi South 8.1 mph - N/A   Overcast
5:17 PM 55.4 °F 51.8 °F 88% 29.99 in 2.0 mi South 8.1 mph - N/A   Overcast
5:31 PM 53.6 °F 51.8 °F 94% 29.99 in 1.2 mi South 8.1 mph - N/A   Overcast
5:45 PM 53.6 °F 51.8 °F 94% 29.99 in 0.8 mi South 8.1 mph - N/A   Overcast
5:56 PM 53.1 °F 51.1 °F 93% 29.99 in 0.8 mi South 9.2 mph - N/A   Mist
6:56 PM 52.0 °F 51.1 °F 97% 29.99 in 0.5 mi SSE 5.8 mph - N/A Fog Fog
7:56 PM 51.1 °F 50.0 °F 96% 29.98 in 0.5 mi SE 5.8 mph - N/A Fog Fog
8:56 PM 51.1 °F 50.0 °F 96% 29.99 in 0.5 mi SE 6.9 mph - N/A Fog Fog
9:56 PM 51.1 °F 51.1 °F 100% 29.99 in 0.5 mi SE 5.8 mph - N/A Fog Fog
10:56 PM 51.1 °F 51.1 °F 100% 30.00 in 0.2 mi SSE 3.5 mph - N/A Fog Fog
11:56 PM 51.1 °F 51.1 °F 100% 30.00 in 0.2 mi Calm Calm - N/A Fog Fog